National Weather Service United States Department of Commerce
News Headlines
Data are updated at 11 and 26 past the hour. Coastal data is often not avaialable until 26 past the hour.
Check the Preious Version of the data HERE if data are missing.  

NYCBOYDAT LOC
TTAA00 KOKX 230228

Coastal Waters Roundup...For Informational Purposes Only
National Weather Service New York NY
900 PM EST FRI NOV 22 2019

...Ocean Waters...
  
STATION/POSITION TIME  TEMP    WIND        PRES    WAVE   WND WV SWELL
                       AIR SEA DIR/SP/G            HT/PER HT/PER HT/PER/DIR
                 (UTC) (F)     (DEG/KT/KT) (MB)    (FT/S) (FT/S) (FT/S/D)
NY Harb Entrance 0210   45 54  310/ 23/ 33 1013.9
20 S Fire Is NY  0150   47 55  310/ 21/ 25 1012.9    7/ 6   7/ 6
23 SSW Montauk P NOT AVBL
25 SE Block IS   0200      56                N/A    10/ 6  10/ 6   2/180/11
15 E Barnegat NJ 0200      55                N/A     5/ 6   5/ 6   2/120/11
Texas Tower #4   0210   49 61  310/ 29/ 39 1013.5

...Long Island South Shore (WeatherFlow - Wind is MPH)...
  
STATION/POSITION TIME  TEMP    WIND        PRES    WAVE   WND WV SWELL
                       AIR SEA DIR/SP/G            HT/PER HT/PER HT/PER/DIR
                 (UTC) (F)     (DEG/KT/KT) (MB)    (FT/S) (FT/S) (FT/S/D)
Great South Bay  0200   42 42  300/ 10/ 17   N/A

CITY           SKY/WX    TMP DP  RH WIND       PRES   REMARKS
Breezy Point   NOT AVBL                                               
Jones Beach CG   N/A     41 N/A N/A NW12        N/A                   
Amityville       N/A     41 N/A N/A NW8         N/A                   
Boat Channel     N/A     41 N/A N/A NW14        N/A                   
Fire Island CG   N/A     41 N/A N/A NW12G17     N/A                   
Pt O Woods       N/A    N/A N/A N/A NW25G31     N/A                   
Blue Pt          N/A     41 N/A N/A NW9G15      N/A                   
East Moriches    N/A     41 N/A N/A NW18G26     N/A                   
Shinnecock Inl   N/A     41 N/A N/A W21G28      N/A                   
Mecox Bay        N/A     41 N/A N/A NW17G29     N/A                   
Napeaque         N/A     41 N/A N/A NW15G24     N/A                   

...Long Island Sound...
  
STATION/POSITION TIME  TEMP    WIND        PRES    WAVE   WND WV SWELL
                       AIR SEA DIR/SP/G            HT/PER HT/PER HT/PER/DIR
                 (UTC) (F)     (DEG/KT/KT) (MB)    (FT/S) (FT/S) (FT/S/D)
Kings Point      0154   43 49   10/ 14/ 18 1014.1
Execution Rocks  0200   43 32  300/ 19/ 29   N/A
Western LI Sound 0100   44     310/ 19/ 27   N/A     2/ 3
Bridgeport NOS   0154   40 47  280/  5/ 12 1011.5
New Haven NOS    0154   41 46  300/ 11/ 13 1010.9
Central LI Sound NOT AVBL
Ledge Light      NOT AVBL

...Long Island Sound Coastal  (WeatherFlow - Wind is MPH)...
  
CITY           SKY/WX    TMP DP  RH WIND       PRES   REMARKS
Larchmont        N/A     41 N/A N/A W18G24      N/A                   
Norwalk          N/A     39 N/A N/A W18G30      N/A                   
Bayville         N/A     43 N/A N/A NW28G36     N/A                   
Eatons Neck      N/A     41 N/A N/A NW29G37     N/A                   
Mt Sinai         N/A    N/A N/A N/A NW15G24     N/A                   
New Haven Harb   N/A     39 N/A N/A W13G20      N/A                   
Hammonasset      N/A     41 N/A N/A W7G14       N/A                   
USCG Academy     N/A     41 N/A N/A NW13G23     N/A                   
Gull Island      N/A     43 N/A N/A NW31G38     N/A                   
Fishers Island   N/A     43 N/A N/A W18G29      N/A                   

...Block Island Sound (WeatherFlow - Wind is MPH)...
  
CITY           SKY/WX    TMP DP  RH WIND       PRES   REMARKS
Block Island     N/A    N/A N/A N/A NW24G30     N/A                   
Ninigret Pond    N/A     41 N/A N/A NW17G25     N/A                   
Point Judith     N/A     41 N/A N/A W28G33      N/A                   

...NY Harbor...
  
STATION/POSITION TIME  TEMP    WIND        PRES    WAVE   WND WV SWELL
                       AIR SEA DIR/SP/G            HT/PER HT/PER HT/PER/DIR
                 (UTC) (F)     (DEG/KT/KT) (MB)    (FT/S) (FT/S) (FT/S/D)
Bergen Point     0154   43 49              1014.1
Robbins Reef     0154   43     320/ 18/ 22 1013.4
Sandy Hook       0154   43 45  310/ 22/ 29 1014.1

...NY Harbor (WeatherFlow - Wind is MPH)...
  
CITY           SKY/WX    TMP DP  RH WIND       PRES   REMARKS
Bayonne          N/A     41 N/A N/A NW12G17     N/A                   
Perth Amboy      N/A     41 N/A N/A NW14        N/A                   
Sandy Hook     NOT AVBL                                               

...New England Waters...
  
STATION/POSITION TIME  TEMP    WIND        PRES    WAVE   WND WV SWELL
                       AIR SEA DIR/SP/G            HT/PER HT/PER HT/PER/DIR
                 (UTC) (F)     (DEG/KT/KT) (MB)    (FT/S) (FT/S) (FT/S/D)
Buzzards Bay MA  0200   41     290/ 37/ 42 1008.5
Nantucket Shoals 0210   47     290/ 33/ 39 1007.8
Nantucket Sound  0200   43 47                N/A
Boston Harbor    0150   44 51  280/ 27/ 33 1004.0    5/ 5   5/ 5   2/ 80/11
Mass Bay         0104   45 50  280/ 23/ 29 1002.8    4/ 5
Jeffrey's Ledge  0208      49                N/A     7/ 5   7/ 5   2/140/11
Isle of Shoals   0200   40     300/ 25/ 28 1004.0
Mnt Desert Rock  0200          280/ 34/ 37  997.6
Matinicus Rock M NOT AVBL
Gulf of Maine    0150   45 50  300/ 31/ 37  999.9   10/ 7  10/ 7
12 SE Portland M 0150   39 48  310/ 19/ 23 1002.2    4/ 6   3/ 5   2/160/ 6

...Southern NJ Coast...
  
STATION/POSITION TIME  TEMP    WIND        PRES    WAVE   WND WV SWELL
                       AIR SEA DIR/SP/G            HT/PER HT/PER HT/PER/DIR
                 (UTC) (F)     (DEG/KT/KT) (MB)    (FT/S) (FT/S) (FT/S/D)
Delaware Bay     0150   51 56  300/ 19/ 23 1013.7    4/ 4   3/ 4   2/100/10

...Mid-Atlantic and Southeast Coast... 
  
STATION/POSITION TIME  TEMP    WIND        PRES    WAVE   WND WV SWELL
                       AIR SEA DIR/SP/G            HT/PER HT/PER HT/PER/DIR
                 (UTC) (F)     (DEG/KT/KT) (MB)    (FT/S) (FT/S) (FT/S/D)
Thomas Point MD  0200   47 50  300/ 12/ 14 1018.4
Diamond Shoals N 0210   65 78  270/ 16/ 19 1016.0
Cape Lookout NC  0200   60     310/  8/  9 1017.6
Frying Pan Shls  0210   69 74  270/ 17/ 21 1017.2
Duck Pier NC     0154   56 57  280/  6/  8 1015.3
Folly Island SC  0200   61     250/  6/  8 1018.0
St Augustine FL  0200   65 66  190/  6/  6 1018.6
64 E VA Beach VA 0150   59 59  340/ 16/ 21 1015.9    4/11   3/ 5   2/130/11
Edisto SC        0210      76  240/ 17/ 19 1017.1
Grays Reef GA    0150   67 65  200/ 10/ 10 1017.7    2/12          2/150/12
20 E Cape Canave 0210   75 80  170/  8/ 12 1019.0
South Hatteras N 0210   72     240/ 12/ 16 1018.5
Georges Bank     0210      52              1001.9
$$

 

Updated:  1/4/16